Back to catalog

STARLINK-36349

AliveCommunicationsSSO
NORAD 67964·PAYLOAD·🇺🇸 United States

Launched Feb 25, 2026 from Vandenberg Space Force Base

Loading…

Next Passes (next 24 hours)

TLE

FreshSource: CelesTrak SupGP

Epoch: Sep 14, 2026, 15:49 UTC

1 67964C 26038D   26257.65951389 -.00059606  00000+0 -18500-2 0  2579
2 67964  97.2844 266.0278 0001671  94.0597 308.1615 15.33473762    14

Track STARLINK-36349 in real time with AllMySat

Download on the App Store